SCP
0 0 0 0 0 0 0 0 0 0 0 0 0 0 0 0 0 0 0 0 0 0 0 0 0 0 0 0 0 -0 -0 -0 0 0 0 0 0 0 0 0 -0 -0 0
0 0 0 0 0 0 0 0 0 0 0 0 0 0 0 0 0 0 0 0 0 0 0 0 0 0 0 0 0 0 0 0 0 0 0 0 0 0 0 0 0 -0 -0
0 0 0 0 0 0 0 0 0 0 0 0 0 0 0 0 0 0 0 0 0 0 0 0 0 0 0 0 0 0 0 0 0 0 0 0 0 -0 -0 0 0 -0 -0
0 0 0 0 0 0 0 0 0 0 0 0 0 0 0 0 0 0 0 0 0 0 0 0 0 0 0 0 0 0 0 0 0 0 0 0 0 -0 0 -0 -0 0 0
0 0 0 0 0 0 0 0 0 0 0 0 0 0 0 0 0 0 0 0 0 0 0 0 0 0 0 0 0 0 0 0 0 0 0 0 0 -0 -0 -0 -0 -0 -0
0 0 0 0 0 0 0 0 0 0 0 0 0 0 0 0 0 0 0 0 0 0 0 0 0 0 0 0 0 0 0 0 0 0 0 0 0 0 0 0 0 -0 -0
0 0 0 0 0 0 0 0 0 0 0 0 0 0 0 0 0 0 0 0 0 0 0 0 0 0 0 0 0 0 0 0 0 0 0 0 0 0 0 0 0 0 0
0 0 0 0 0 0 0 0 0 0 0 0 0 0 0 0 0 0 0 0 0 0 0 0 0 0 0 0 0 0 0 0 0 0 0 0 0 0 0 0 0 0 0
0 0 0 0 0 0 0 0 0 0 0 0 0 0 0 0 0 0 0 0 0 0 0 0 0 0 0 0 0 0 0 0 0 0 0 0 0 0 0 0 0 0 0
0 0 0 0 0 0 0 0 0 0 0 0 0 0 0 0 0 0 0 0 0 0 0 0 0 0 0 0 0 0 0 0 0 0 0 0 0 0 0 0 0 0 0
0 0 0 0 0 0 0 0 0 0 0 0 0 0 0 0 0 0 0 0 0 0 0 0 0 0 0 0 0 0 0 0 0 0 0 0 0 0 0 0 0 0 0
0 0 0 0 0 0 0 0 0 0 0 0 0 0 0 0 0 0 0 0 0 0 0 0 0 0 0 0 0 0 0 0 0 0 0 0 0 0 0 0 0 0 0
0 0 0 0 0 0 0 0 0 0 0 0 0 0 0 0 0 0 0 0 0 0 0 0 0 0 0 0 0 0 0 0 0 0 0 0 0 0 0 0 0 0 0
0 0 0 0 0 0 0 0 0 0 0 0 0 0 0 0 0 0 0 0 0 0 0 0 0 0 0 0 0 0 0 0 0 0 0 0 0 0 0 0 0 0 0
0 0 0 0 0 0 0 0 0 0 0 0 0 0 0 0 0 0 0 0 0 0 0 0 0 0 0 0 0 0 0 0 0 0 0 0 0 0 0 0 0 0 0
0 0 0 0 0 0 0 0 0 0 0 0 0 0 0 0 0 0 0 0 0 0 0 0 0 0 0 0 0 0 0 0 0 0 0 0 0 0 0 0 0 0 0
0 0 0 0 0 0 0 0 0 0 0 0 0 0 0 0 0 0 0 0 0 0 0 0 0 0 0 0 0 0 0 0 0 0 0 0 0 0 0 0 0 0 0
0 0 0 0 0 0 0 0 0 0 0 0 0 0 0 0 0 0 0 0 0 0 0 0 0 0 0 0 0 0 0 0 0 0 0 0 0 0 0 0 0 0 0
0 0 0 0 0 0 0 0 0 0 0 0 0 0 0 0 0 0 0 0 0 0 0 0 0 0 0 0 0 0 0 0 0 0 0 0 0 0 0 0 0 0 0
0 0 0 0 0 0 0 0 0 0 0 0 0 0 0 0 0 0 0 0 0 0 0 0 0 0 0 0 0 0 0 0 0 0 0 0 0 0 0 0 0 0 0
0 0 0 0 0 0 0 0 0 0 0 0 0 0 0 0 0 0 0 0 0 0 0 0 0 0 0 0 0 0 0 0 0 0 0 0 0 0 0 0 0 0 0
0 0 0 0 0 0 0 0 0 0 0 0 0 0 0 0 0 0 0 0 0 0 0 0 0 0 0 0 0 0 0 0 0 0 0 0 0 0 0 0 0 0 0
0 0 0 0 0 0 0 0 0 0 0 0 0 0 0 0 0 0 0 0 0 0 0 0 0 0 0 0 0 0 0 0 0 0 0 0 0 0 0 0 0 0 0
0 0 0 0 0 0 0 0 0 0 0 0 0 0 0 0 0 0 0 0 0 0 0 0 0 0 0 0 0 0 0 0 0 0 0 0 0 0 0 0 0 0 0
0 0 0 0 0 0 0 0 0 0 0 0 0 0 0 0 0 0 0 0 0 0 0 0 0 0 0 -0 0 0 0 0 0 0 0 0 0 0 0 0 0 0 0
0 0 0 0 0 0 0 0 0 0 0 0 0 0 0 0 0 0 0 0 0 0 0 0 0 0 0 -0 0 0 0 0 0 0 0 0 0 0 0 0 0 0 0
Wind_Speed_500mb
39 38 34 28 23 18 13 8 3 4 10 16 23 29 32 34 35 36 39 42 46 48 50 53 54 55 55 57 58 60 59 53 61 98 86 86 87 90 89 88 90 87 86
44 41 37 32 26 20 15 11 7 9 13 20 25 30 31 33 35 38 41 45 49 51 54 56 57 59 61 62 62 64 66 65 61 82 99 90 76 73 86 88 87 86 80
48 45 44 38 31 24 19 16 14 15 18 23 26 30 32 35 38 42 45 48 51 54 56 59 61 63 65 65 67 71 73 70 67 65 99 82 78 67 67 72 78 84 80
53 54 50 42 33 29 24 23 21 22 25 27 29 31 33 35 41 45 49 52 54 56 58 60 61 62 65 69 72 72 70 72 73 68 83 89 74 67 59 63 71 67 71
59 59 54 44 39 34 32 29 28 29 33 35 36 36 36 37 42 48 54 56 57 58 57 59 61 64 67 71 70 72 71 70 67 69 77 79 75 71 62 65 71 77 78
62 62 55 50 44 41 38 35 34 37 40 43 43 41 40 42 46 53 57 58 59 60 60 59 62 65 67 69 69 63 51 58 66 70 75 77 78 81 77 70 66 70 79
65 61 59 55 48 45 43 42 43 44 46 47 46 47 46 46 51 56 58 59 60 59 61 63 65 66 69 69 68 63 59 56 55 64 76 77 78 74 73 73 68 70 76
61 60 60 56 52 50 49 50 50 50 50 49 50 50 49 50 53 57 59 59 60 61 62 64 66 68 69 64 65 69 72 75 74 70 76 84 84 83 81 85 86 88 89
57 60 58 56 54 53 53 53 52 52 52 52 52 51 51 52 56 59 59 60 61 60 61 63 65 69 65 51 61 71 77 79 73 60 57 66 75 76 74 77 78 78 81
56 52 50 50 51 56 54 53 52 51 52 51 52 53 55 58 58 57 57 59 60 58 60 63 63 50 49 53 58 69 82 86 82 79 81 81 67 64 63 69 72 75 78
42 41 40 44 51 55 56 57 56 53 52 52 54 57 60 60 59 56 56 56 55 57 62 65 63 48 48 53 62 66 67 67 73 76 78 75 64 58 53 49 55 60 69
36 35 41 46 52 56 59 61 58 53 54 56 58 61 63 62 58 56 55 56 53 53 60 60 55 47 50 62 60 61 55 57 63 61 59 60 56 56 52 51 52 59 66
40 41 45 51 57 61 62 59 55 55 57 59 60 63 64 61 59 57 57 52 47 47 53 49 56 66 71 60 54 54 53 52 52 54 56 55 50 55 58 58 54 55 59
54 52 54 58 59 61 60 58 58 58 59 60 61 64 63 60 58 56 55 48 47 43 47 57 65 69 62 54 51 49 48 46 48 49 51 56 57 56 54 51 53 54 57
65 62 61 59 58 58 59 59 59 60 59 60 64 63 63 62 58 53 46 46 48 45 53 69 69 61 55 50 47 45 45 44 45 50 55 56 58 56 55 52 53 52 53
67 66 62 60 59 58 59 60 61 61 63 65 67 67 63 63 55 43 46 43 43 54 64 65 64 53 50 49 48 47 45 44 46 49 52 57 59 55 54 54 53 50 52
66 63 60 58 58 58 58 59 60 62 65 65 66 63 62 60 54 45 48 43 46 61 63 63 54 49 47 47 47 47 48 46 47 49 51 56 57 52 52 57 61 59 58
62 61 57 56 55 55 55 56 59 61 63 65 62 60 59 59 62 61 46 44 55 62 58 52 49 48 46 47 47 49 50 49 47 49 51 54 57 53 53 61 62 60 60
54 54 53 53 52 52 54 57 60 61 63 65 66 64 59 60 66 68 57 54 61 56 53 49 47 48 47 47 49 49 50 49 47 47 49 52 55 55 54 59 59 57 57
46 47 47 50 52 53 55 57 59 61 62 63 65 67 63 63 61 62 60 57 56 54 53 50 48 48 47 48 49 48 48 45 44 43 45 49 53 55 55 60 57 56 56
42 45 47 49 51 53 55 56 57 58 61 64 66 65 62 62 61 59 58 57 50 52 50 50 49 50 48 47 47 45 44 40 39 40 42 47 51 54 55 57 55 52 52
42 44 46 47 49 51 52 54 55 57 61 64 65 64 56 56 59 57 61 56 50 51 50 50 50 49 45 44 43 42 41 37 35 36 38 45 46 48 53 54 53 52 50
37 38 40 42 44 46 49 51 53 55 57 58 58 59 56 55 55 55 56 53 51 52 51 50 49 46 43 42 41 40 39 35 34 32 36 43 43 45 48 49 50 51 50
33 35 37 40 43 44 46 47 47 46 47 47 48 49 51 51 52 52 51 50 51 50 49 47 46 44 42 41 40 38 36 33 33 28 29 38 38 39 40 41 44 46 48
33 35 37 38 39 40 40 40 42 45 47 47 48 48 48 49 50 48 47 47 47 46 44 44 44 43 41 41 40 37 33 31 31 28 26 29 31 30 31 35 39 42 44
32 33 34 35 35 36 38 41 45 46 47 46 46 46 47 47 47 46 43 41 43 44 44 43 43 42 42 41 39 37 35 31 29 26 29 24 22 23 27 31 35 38 41
Wind_Direction_500mb
200 200 197 198 198 197 203 204 222 307 327 333 333 328 327 325 325 326 327 330 329 328 327 327 326 326 324 321 318 314 308 300 291 301 297 301 300 300 298 296 296 295 290
205 202 203 205 203 207 216 225 256 289 310 318 322 322 323 320 323 325 327 328 325 324 323 323 322 321 321 320 317 313 309 304 294 293 301 298 298 297 300 300 300 300 300
209 207 210 208 208 215 223 240 255 276 297 308 315 317 318 318 320 323 323 321 321 320 320 319 319 318 318 317 315 313 310 308 304 297 299 301 300 303 299 295 297 298 302
215 213 215 212 214 223 233 245 258 274 288 295 301 307 311 316 320 321 319 317 316 315 316 315 315 315 315 315 313 312 310 306 304 300 299 302 306 308 304 303 299 291 290
219 219 218 217 223 228 237 251 262 274 283 285 291 296 303 310 314 316 315 311 310 311 312 313 315 314 315 314 313 311 307 307 307 306 303 303 304 308 308 306 300 300 296
225 223 222 223 228 236 243 255 267 274 282 281 281 287 294 302 309 312 312 309 308 309 311 313 314 314 313 311 309 307 302 304 302 298 301 301 301 301 302 300 300 300 301
229 226 226 228 233 241 250 260 270 274 278 278 279 285 292 300 308 310 308 307 307 308 310 312 312 312 311 310 308 306 308 308 296 295 292 295 302 304 301 301 299 297 296
233 231 231 231 236 244 255 264 268 273 276 278 280 285 292 300 305 307 305 305 305 306 308 309 310 310 311 310 313 316 313 311 310 304 297 298 297 299 296 295 295 296 296
233 232 232 234 240 250 258 264 269 273 276 279 281 285 292 299 303 302 301 301 302 304 306 307 309 311 314 312 309 306 307 307 311 297 290 290 290 291 287 289 288 289 290
229 229 231 238 247 255 258 261 266 271 275 278 284 289 293 297 299 298 298 299 300 303 303 306 310 305 307 307 305 303 301 299 301 301 295 293 297 293 287 281 287 283 286
223 227 235 246 254 257 256 258 263 268 274 280 284 288 291 295 296 295 294 296 299 302 303 306 307 304 305 302 306 301 302 308 300 294 295 298 300 299 299 291 284 284 284
217 236 248 255 258 258 257 257 260 268 276 280 284 287 291 293 293 291 292 296 298 297 301 303 305 303 298 310 311 311 310 308 309 309 306 306 304 302 300 291 283 275 270
234 247 254 259 260 257 255 257 261 269 274 278 281 285 288 290 290 290 291 294 294 293 299 304 287 293 306 311 314 315 316 319 321 317 315 314 309 303 303 304 302 299 294
241 249 257 261 260 257 255 256 261 267 272 276 278 283 284 284 284 287 289 292 297 299 302 291 293 300 307 311 316 320 322 325 327 328 323 318 315 314 314 316 312 311 307
247 253 258 260 258 255 253 257 264 267 270 274 278 280 280 280 283 284 286 293 298 299 285 284 294 303 306 312 317 321 325 328 331 333 331 334 332 325 319 318 317 314 310
252 255 256 256 253 249 254 259 264 268 272 274 277 278 277 279 281 278 272 282 285 277 277 286 294 298 303 309 315 321 326 330 332 332 336 337 333 326 321 322 324 318 312
250 251 251 249 247 250 254 260 266 270 273 275 277 277 277 279 277 273 273 279 276 272 278 286 287 293 299 305 312 317 322 327 328 332 335 337 337 332 331 328 327 324 318
246 248 245 245 247 252 258 264 269 273 275 279 278 278 279 280 280 280 276 272 265 271 279 281 284 289 296 302 308 312 315 319 323 327 331 337 341 336 332 329 327 324 322
242 243 245 250 255 260 267 271 273 275 277 279 280 280 281 280 280 280 277 265 268 273 276 279 283 288 294 299 303 307 309 314 319 321 328 334 338 339 335 332 332 329 326
242 247 252 258 264 269 272 274 275 276 277 278 280 284 287 286 281 278 275 271 269 271 275 279 282 286 292 298 301 304 306 311 318 320 325 332 337 339 340 338 335 332 330
253 259 263 267 270 272 273 274 276 277 280 283 285 287 288 285 280 276 274 273 271 271 274 277 281 287 293 295 297 300 304 311 315 316 324 333 337 338 347 339 337 336 333
261 265 268 270 273 275 277 279 280 283 285 287 288 288 286 277 274 272 272 274 273 272 274 277 281 285 289 290 294 298 302 309 311 312 323 332 335 342 346 343 343 340 337
265 269 273 276 278 280 283 284 286 287 289 290 291 291 288 282 276 272 271 273 272 273 275 277 280 282 284 286 290 293 299 307 307 310 321 332 337 347 343 346 349 349 347
278 280 281 284 286 288 289 291 292 294 296 296 295 293 290 286 281 277 275 274 273 273 274 276 277 280 282 284 286 287 294 301 302 303 315 330 339 343 341 348 354 355 356
285 287 288 289 290 291 292 294 295 297 297 297 295 293 290 287 284 282 279 277 275 275 275 276 278 280 282 281 282 283 288 292 296 292 295 320 336 336 342 351 356 358 1
292 293 293 292 292 292 293 295 296 297 297 296 295 293 292 289 287 285 283 281 279 277 277 277 279 280 281 281 280 279 280 283 283 285 274 292 310 328 340 348 352 356 360
Wind_Speed_850mb
39 38 34 28 23 18 13 8 3 4 10 16 23 29 32 34 35 36 39 42 46 48 50 53 54 55 55 57 58 60 59 53 61 98 86 86 87 90 89 88 90 87 86
44 41 37 32 26 20 15 11 7 9 13 20 25 30 31 33 35 38 41 45 49 51 54 56 57 59 61 62 62 64 66 65 61 82 99 90 76 73 86 88 87 86 80
48 45 44 38 31 24 19 16 14 15 18 23 26 30 32 35 38 42 45 48 51 54 56 59 61 63 65 65 67 71 73 70 67 65 99 82 78 67 67 72 78 84 80
53 54 50 42 33 29 24 23 21 22 25 27 29 31 33 35 41 45 49 52 54 56 58 60 61 62 65 69 72 72 70 72 73 68 83 89 74 67 59 63 71 67 71
59 59 54 44 39 34 32 29 28 29 33 35 36 36 36 37 42 48 54 56 57 58 57 59 61 64 67 71 70 72 71 70 67 69 77 79 75 71 62 65 71 77 78
62 62 55 50 44 41 38 35 34 37 40 43 43 41 40 42 46 53 57 58 59 60 60 59 62 65 67 69 69 63 51 58 66 70 75 77 78 81 77 70 66 70 79
65 61 59 55 48 45 43 42 43 44 46 47 46 47 46 46 51 56 58 59 60 59 61 63 65 66 69 69 68 63 59 56 55 64 76 77 78 74 73 73 68 70 76
61 60 60 56 52 50 49 50 50 50 50 49 50 50 49 50 53 57 59 59 60 61 62 64 66 68 69 64 65 69 72 75 74 70 76 84 84 83 81 85 86 88 89
57 60 58 56 54 53 53 53 52 52 52 52 52 51 51 52 56 59 59 60 61 60 61 63 65 69 65 51 61 71 77 79 73 60 57 66 75 76 74 77 78 78 81
56 52 50 50 51 56 54 53 52 51 52 51 52 53 55 58 58 57 57 59 60 58 60 63 63 50 49 53 58 69 82 86 82 79 81 81 67 64 63 69 72 75 78
42 41 40 44 51 55 56 57 56 53 52 52 54 57 60 60 59 56 56 56 55 57 62 65 63 48 48 53 62 66 67 67 73 76 78 75 64 58 53 49 55 60 69
36 35 41 46 52 56 59 61 58 53 54 56 58 61 63 62 58 56 55 56 53 53 60 60 55 47 50 62 60 61 55 57 63 61 59 60 56 56 52 51 52 59 66
40 41 45 51 57 61 62 59 55 55 57 59 60 63 64 61 59 57 57 52 47 47 53 49 56 66 71 60 54 54 53 52 52 54 56 55 50 55 58 58 54 55 59
54 52 54 58 59 61 60 58 58 58 59 60 61 64 63 60 58 56 55 48 47 43 47 57 65 69 62 54 51 49 48 46 48 49 51 56 57 56 54 51 53 54 57
65 62 61 59 58 58 59 59 59 60 59 60 64 63 63 62 58 53 46 46 48 45 53 69 69 61 55 50 47 45 45 44 45 50 55 56 58 56 55 52 53 52 53
67 66 62 60 59 58 59 60 61 61 63 65 67 67 63 63 55 43 46 43 43 54 64 65 64 53 50 49 48 47 45 44 46 49 52 57 59 55 54 54 53 50 52
66 63 60 58 58 58 58 59 60 62 65 65 66 63 62 60 54 45 48 43 46 61 63 63 54 49 47 47 47 47 48 46 47 49 51 56 57 52 52 57 61 59 58
62 61 57 56 55 55 55 56 59 61 63 65 62 60 59 59 62 61 46 44 55 62 58 52 49 48 46 47 47 49 50 49 47 49 51 54 57 53 53 61 62 60 60
54 54 53 53 52 52 54 57 60 61 63 65 66 64 59 60 66 68 57 54 61 56 53 49 47 48 47 47 49 49 50 49 47 47 49 52 55 55 54 59 59 57 57
46 47 47 50 52 53 55 57 59 61 62 63 65 67 63 63 61 62 60 57 56 54 53 50 48 48 47 48 49 48 48 45 44 43 45 49 53 55 55 60 57 56 56
42 45 47 49 51 53 55 56 57 58 61 64 66 65 62 62 61 59 58 57 50 52 50 50 49 50 48 47 47 45 44 40 39 40 42 47 51 54 55 57 55 52 52
42 44 46 47 49 51 52 54 55 57 61 64 65 64 56 56 59 57 61 56 50 51 50 50 50 49 45 44 43 42 41 37 35 36 38 45 46 48 53 54 53 52 50
37 38 40 42 44 46 49 51 53 55 57 58 58 59 56 55 55 55 56 53 51 52 51 50 49 46 43 42 41 40 39 35 34 32 36 43 43 45 48 49 50 51 50
33 35 37 40 43 44 46 47 47 46 47 47 48 49 51 51 52 52 51 50 51 50 49 47 46 44 42 41 40 38 36 33 33 28 29 38 38 39 40 41 44 46 48
33 35 37 38 39 40 40 40 42 45 47 47 48 48 48 49 50 48 47 47 47 46 44 44 44 43 41 41 40 37 33 31 31 28 26 29 31 30 31 35 39 42 44
32 33 34 35 35 36 38 41 45 46 47 46 46 46 47 47 47 46 43 41 43 44 44 43 43 42 42 41 39 37 35 31 29 26 29 24 22 23 27 31 35 38 41
Wind_Direction_850mb
200 200 197 198 198 197 203 204 222 307 327 333 333 328 327 325 325 326 327 330 329 328 327 327 326 326 324 321 318 314 308 300 291 301 297 301 300 300 298 296 296 295 290
205 202 203 205 203 207 216 225 256 289 310 318 322 322 323 320 323 325 327 328 325 324 323 323 322 321 321 320 317 313 309 304 294 293 301 298 298 297 300 300 300 300 300
209 207 210 208 208 215 223 240 255 276 297 308 315 317 318 318 320 323 323 321 321 320 320 319 319 318 318 317 315 313 310 308 304 297 299 301 300 303 299 295 297 298 302
215 213 215 212 214 223 233 245 258 274 288 295 301 307 311 316 320 321 319 317 316 315 316 315 315 315 315 315 313 312 310 306 304 300 299 302 306 308 304 303 299 291 290
219 219 218 217 223 228 237 251 262 274 283 285 291 296 303 310 314 316 315 311 310 311 312 313 315 314 315 314 313 311 307 307 307 306 303 303 304 308 308 306 300 300 296
225 223 222 223 228 236 243 255 267 274 282 281 281 287 294 302 309 312 312 309 308 309 311 313 314 314 313 311 309 307 302 304 302 298 301 301 301 301 302 300 300 300 301
229 226 226 228 233 241 250 260 270 274 278 278 279 285 292 300 308 310 308 307 307 308 310 312 312 312 311 310 308 306 308 308 296 295 292 295 302 304 301 301 299 297 296
233 231 231 231 236 244 255 264 268 273 276 278 280 285 292 300 305 307 305 305 305 306 308 309 310 310 311 310 313 316 313 311 310 304 297 298 297 299 296 295 295 296 296
233 232 232 234 240 250 258 264 269 273 276 279 281 285 292 299 303 302 301 301 302 304 306 307 309 311 314 312 309 306 307 307 311 297 290 290 290 291 287 289 288 289 290
229 229 231 238 247 255 258 261 266 271 275 278 284 289 293 297 299 298 298 299 300 303 303 306 310 305 307 307 305 303 301 299 301 301 295 293 297 293 287 281 287 283 286
223 227 235 246 254 257 256 258 263 268 274 280 284 288 291 295 296 295 294 296 299 302 303 306 307 304 305 302 306 301 302 308 300 294 295 298 300 299 299 291 284 284 284
217 236 248 255 258 258 257 257 260 268 276 280 284 287 291 293 293 291 292 296 298 297 301 303 305 303 298 310 311 311 310 308 309 309 306 306 304 302 300 291 283 275 270
234 247 254 259 260 257 255 257 261 269 274 278 281 285 288 290 290 290 291 294 294 293 299 304 287 293 306 311 314 315 316 319 321 317 315 314 309 303 303 304 302 299 294
241 249 257 261 260 257 255 256 261 267 272 276 278 283 284 284 284 287 289 292 297 299 302 291 293 300 307 311 316 320 322 325 327 328 323 318 315 314 314 316 312 311 307
247 253 258 260 258 255 253 257 264 267 270 274 278 280 280 280 283 284 286 293 298 299 285 284 294 303 306 312 317 321 325 328 331 333 331 334 332 325 319 318 317 314 310
252 255 256 256 253 249 254 259 264 268 272 274 277 278 277 279 281 278 272 282 285 277 277 286 294 298 303 309 315 321 326 330 332 332 336 337 333 326 321 322 324 318 312
250 251 251 249 247 250 254 260 266 270 273 275 277 277 277 279 277 273 273 279 276 272 278 286 287 293 299 305 312 317 322 327 328 332 335 337 337 332 331 328 327 324 318
246 248 245 245 247 252 258 264 269 273 275 279 278 278 279 280 280 280 276 272 265 271 279 281 284 289 296 302 308 312 315 319 323 327 331 337 341 336 332 329 327 324 322
242 243 245 250 255 260 267 271 273 275 277 279 280 280 281 280 280 280 277 265 268 273 276 279 283 288 294 299 303 307 309 314 319 321 328 334 338 339 335 332 332 329 326
242 247 252 258 264 269 272 274 275 276 277 278 280 284 287 286 281 278 275 271 269 271 275 279 282 286 292 298 301 304 306 311 318 320 325 332 337 339 340 338 335 332 330
253 259 263 267 270 272 273 274 276 277 280 283 285 287 288 285 280 276 274 273 271 271 274 277 281 287 293 295 297 300 304 311 315 316 324 333 337 338 347 339 337 336 333
261 265 268 270 273 275 277 279 280 283 285 287 288 288 286 277 274 272 272 274 273 272 274 277 281 285 289 290 294 298 302 309 311 312 323 332 335 342 346 343 343 340 337
265 269 273 276 278 280 283 284 286 287 289 290 291 291 288 282 276 272 271 273 272 273 275 277 280 282 284 286 290 293 299 307 307 310 321 332 337 347 343 346 349 349 347
278 280 281 284 286 288 289 291 292 294 296 296 295 293 290 286 281 277 275 274 273 273 274 276 277 280 282 284 286 287 294 301 302 303 315 330 339 343 341 348 354 355 356
285 287 288 289 290 291 292 294 295 297 297 297 295 293 290 287 284 282 279 277 275 275 275 276 278 280 282 281 282 283 288 292 296 292 295 320 336 336 342 351 356 358 1
292 293 293 292 292 292 293 295 296 297 297 296 295 293 292 289 287 285 283 281 279 277 277 277 279 280 281 281 280 279 280 283 283 285 274 292 310 328 340 348 352 356 360